Regional Weather Roundup
Issued by NWS Northern Indiana

Home | Current Version | Previous Version | Text Only | Print | Product List | Glossary On
Versions: 1 2 3 4 5 6 7 8 9 10 11 12 13 14 15 16 17 18 19 20 21 22 23 24 25 26 27 28 29 30 31 32 33 34 35 36 37 38 39 40 41 42 43 44 45 46 47 48 49 50
231
ASUS43 KIWX 281700
RWRIWX

KIWX WEATHER ROUNDUP
NATIONAL WEATHER SERVICE NORTHERN INDIANA
100 PM EDT SUN AUG 28 2016

NOTE: "FAIR" INDICATES FEW OR NO CLOUDS BELOW 12,000 FEET WITH NO
SIGNIFICANT WEATHER AND/OR OBSTRUCTIONS TO VISIBILITY.

* THESE STATIONS ARE NOT UNDER NWS QUALITY CONTROL. THEY ALSO MAY NOT
  REPORT WEATHER SUCH AS PRECIPITATION OR FOG.

INZ001>027-281800-
NORTHERN INDIANA

CITY           SKY/WX    TMP DP  RH WIND       PRES   REMARKS
GARY*          PTSUNNY   82  73  74 NE7       30.21S
KNOX*          MOSUNNY   82  52  34 CALM      30.20S
SOUTH BEND     PTSUNNY   83  73  72 N8        30.21F
ELKHART*       PTSUNNY   82  72  69 CALM      30.22S
GOSHEN         PTSUNNY   83  72  69 CALM      30.22S
MONTICELLO*    MOSUNNY   85  69  58 CALM      30.20S
ANGOLA*        PTSUNNY   84  75  74 VRB3      30.22R
FORT WAYNE     PTSUNNY   85  70  60 CALM      30.21S

$$
INZ028>050-281800-
CENTRAL INDIANA

CITY           SKY/WX    TMP DP  RH WIND       PRES   REMARKS
LAFAYETTE      PTSUNNY   85  74  69 VRB3      30.19S
KOKOMO*        MOSUNNY   84  73  70 CALM      30.20S
MUNCIE*        MOSUNNY   85  73  67 VRB3      30.21F
INDIANAPOLIS   PTSUNNY   86  73  65 SE5       30.20S

$$
MIZ043>046-050>051-056>058-064>065-071>073-077>080-281800-
SOUTHWEST LOWER MICHIGAN

CITY           SKY/WX    TMP DP  RH WIND       PRES   REMARKS
BATTLE CREEK   MOSUNNY   80  71  74 NW7       30.23R
BENTON HARBOR  SUNNY     78  67  68 NW7       30.22R
COLDWATER*     PTSUNNY   82  72  72 CALM      30.22S
HILLSDALE*     MOSUNNY   83  73  72 NW7       30.22S
HOLLAND        SUNNY     80  70  71 W7        30.23S
GRAND RAPIDS   PTSUNNY   79  65  62 N3        30.23S
KALAMAZOO      MOSUNNY   83  69  62 NW7       30.22S
STURGIS*       CLOUDY    82  72  71 N3        30.22R

$$
OHZ001>008-015>018-024>025-281800-
NORTHWEST OHIO

CITY           SKY/WX    TMP DP  RH WIND       PRES   REMARKS
DEFIANCE       SUNNY     85  71  63 SW5       30.20F
FINDLAY        PTSUNNY   87  71  58 SW5       30.20F
TOLEDO EXPRESS MOSUNNY   84  74  71 W6        30.19F
TOLEDO METCALF PTSUNNY   86  75  69 SW8       30.20S HX  95
LIMA           PTSUNNY   85  73  67 S6        30.22S

$$
AND FOR LAKE MICHIGAN COASTAL AND OPEN LAKE BUOY OBSERVATIONS

STATION/POSITION TEMP    WIND        PRES    VSBY  WAVE
                 AIR SEA DIR/SP/G                  HT/PER
                 (F)     (DEG/KT/KT) (MB)    (MI)  (FT/S)
CALUMET HARBOR    74      50/  6/  8 1022.6R
MICHIGAN CITY     75      10/  9/ 10   N/A
BURNS HARBOR      76      60/  9/ 10 1023.4R
SAINT JOSEPH      77      10/  8/ 11 1023.4F
SOUTH LAKE BUOY   73 75   10/ 10/ 12 1022.7          1
4 MI NW BRIDGMAN  75 75  360/  8/ 10 1022.7R         1
MICHIGAN CITY     76 76   50/  8/ 10   N/A           1/ 2

$$
&&




USA.gov is the U.S. government's official web portal to all federal, state and local government web resources and services.